Home   Weather   Providence   Past weeks

Flag for USA Past Weather in Providence, Rhode Island, USA — Yesterday and Last 2 Weeks

Now
73 °F

Partly sunny.


Feels Like: 77 °F
Forecast: 64 / 78 °F
Wind: 13 mph from Northeast

Location: Green State Airport

Current Time: Jul 23, 2017 at 11:00:27 am

Latest Report: Jul 23, 2017 at 9:51 am


Visibility: 10 mi

Pressure: 29.84 "Hg

Humidity: 55%

Dew Point: 56 °F

Location of ProvidenceLocation

Past Weather in Providence — Graph

°F

Providence Temperature Yesterday

Maximum temperature yesterday: 83 °F (at 12:51 pm)
Minimum temperature yesterday: 72 °F (at 5:51 am)
Average temperature yesterday: 77 °F

High & Low Weather Summary for the Past Weeks

 TemperatureHumidityPressure
High93 °F (Jul 20, 2:51 pm)100% (Jul 11, 1:51 am)30.14 "Hg (Jul 11, 1:51 am)
Low59 °F (Jul 13, 6:08 pm)34% (Jul 9, 4:51 pm)29.69 "Hg (Jul 8, 4:51 pm)
Average74 °F81%29.96 "Hg
* Reported Jul 8 8:51 am — Jul 23 8:51 am, Providence. Weather by CustomWeather, © 2017

Note: Actual official high and low records may vary slightly from our data, if they occured in-between our weather recording intervals... More about our weather records

Advertising

Providence Weather History for the Previous 24 Hours

Scroll right to see more
 ConditionsComfort  
Time TempWeatherWind HumidityBarometerVisibility
8:51 am
Sun, Jul 23
71 °FPartly sunny.15 mph57%29.83 "Hg10 mi
7:51 am70 °FPartly sunny.20 mph71%29.80 "Hg10 mi
7:40 am70 °FMostly cloudy.20 mph73%29.80 "Hg10 mi
6:51 am71 °FPartly sunny.15 mph81%29.78 "Hg10 mi
5:51 am73 °FPartly sunny.14 mph81%29.75 "Hg10 mi
4:51 am73 °FPassing clouds.5 mph81%29.73 "Hg10 mi
3:51 am73 °FOvercast.3 mph81%29.73 "Hg10 mi
2:51 am74 °FOvercast.5 mph74%29.74 "Hg10 mi
1:51 am73 °FOvercast.6 mph79%29.76 "Hg10 mi
12:51 am74 °FOvercast.3 mph74%29.78 "Hg10 mi
11:51 pm
Sat, Jul 22
74 °FDrizzle. Overcast.No wind76%29.78 "Hg10 mi
10:51 pm74 °FOvercast.6 mph74%29.79 "Hg10 mi
9:51 pm74 °FLight rain. Overcast.7 mph76%29.79 "Hg10 mi
8:51 pm75 °FMostly cloudy.7 mph76%29.79 "Hg10 mi
7:51 pm76 °FMostly cloudy.5 mph74%29.80 "Hg10 mi
6:51 pm78 °FMostly cloudy.8 mph66%29.79 "Hg10 mi
5:51 pm80 °FMore clouds than sun.7 mph62%29.80 "Hg10 mi
4:51 pm81 °FBroken clouds.7 mph58%29.80 "Hg10 mi
3:51 pm81 °FPartly sunny.13 mph56%29.82 "Hg10 mi
2:51 pm83 °FMostly cloudy.9 mph55%29.83 "Hg10 mi
1:51 pm83 °FPartly sunny.6 mph51%29.85 "Hg10 mi
12:51 pm83 °FPartly sunny.8 mph57%29.86 "Hg10 mi
11:51 am81 °FPartly sunny.No wind56%29.87 "Hg10 mi
Weather by CustomWeather, © 2017

See weather overviewHow to use our weather pages